1508745600.45,34727,10.94,72716.5,-3.97,-5.81,-5.43,0,*56
1508745601.71,34728,10.94,72726.0,-3.97,-5.81,-5.51,0,*5A
1508745602.96,34729,10.88,72722.8,-3.97,-5.73,-5.51,0,*56
1508745604.22,34730,10.94,72720.5,-3.97,-5.97,-5.73,0,*54
1508745605.5,34731,10.94,72722.3,-3.97,-5.93,-5.65,0,*56
1508745606.77,34732,10.94,72732.0,-3.97,-5.85,-5.55,0,*51
1508745608.0,34733,10.88,72724.8,-3.99,-5.73,-5.51,0,*53
1508745609.26,34734,10.94,72726.8,-3.99,-6.19,-5.81,0,*56
1508745610.48,34735,10.88,72738.5,-3.99,-5.73,-5.39,0,*5B
1508745611.77,34736,10.94,72740.0,-3.97,-5.93,-5.65,0,*51
1508745613.03,34737,10.88,72732.8,-3.97,-5.81,-5.55,0,*50
1508745614.3,34738,10.88,72726.5,-3.97,-5.81,-5.55,0,*5F
1508745615.53,34739,10.94,72728.0,-3.97,-5.55,-5.39,0,*5D
1508745616.78,34740,10.88,72726.5,-3.97,-5.73,-5.43,0,*5A
1508745618.04,34741,10.88,72718.8,-3.97,-5.81,-5.51,0,*55
1508745619.3,34742,10.88,72720.3,-3.97,-5.81,-5.51,0,*56
1508745620.59,34743,10.88,72726.8,-3.97,-5.85,-5.65,0,*54
1508745621.83,34744,10.88,72734.5,-3.99,-5.81,-5.51,0,*5E
1508745623.08,34745,10.88,72734.0,-3.95,-5.61,-5.27,0,*5C
1508745624.34,34746,10.88,72728.3,-3.97,-5.51,-5.27,0,*5E
1508745625.6,34747,10.94,72720.0,-3.97,-5.73,-5.43,0,*5D
1508745626.86,34748,10.88,72726.0,-3.97,-5.69,-5.51,0,*5A
1508745628.11,34749,10.88,72726.8,-3.97,-5.69,-5.43,0,*58
1508745629.37,34750,10.88,72730.0,-3.97,-5.65,-5.43,0,*5C
1508745630.63,34751,10.88,72728.5,-3.97,-5.81,-5.51,0,*54
1508745631.89,34752,10.88,72726.3,-3.97,-5.69,-5.43,0,*52
1508745633.14,34753,10.88,72714.5,-3.97,-5.65,-5.39,0,*52
1508745634.41,34754,10.88,72716.0,-3.97,-5.85,-5.51,0,*55
1508745635.64,34755,10.88,72716.5,-3.95,-5.51,-5.27,0,*5E
1508745636.87,34756,10.88,72712.0,-3.95,-5.65,-5.39,0,*55
1508745638.09,34757,10.88,72726.5,-3.95,-5.77,-5.47,0,*5E
1508745639.3,34758,10.88,72724.0,-3.95,-5.51,-5.47,0,*55
1508745640.55,34759,10.94,72724.8,-3.97,-5.73,-5.51,0,*51
1508745641.84,34760,10.88,72726.3,-3.97,-5.93,-5.65,0,*52
1508745643.09,34761,10.94,72728.3,-3.95,-5.89,-5.65,0,*5A
1508745644.35,34762,10.88,72728.5,-3.97,-5.69,-5.55,0,*56
1508745645.62,34763,10.88,72730.0,-3.97,-5.55,-5.31,0,*5A
1508745646.88,34764,10.94,72734.0,-3.97,-5.69,-5.43,0,*57
1508745648.14,34765,10.88,72730.3,-3.97,-5.81,-5.51,0,*53
1508745649.39,34766,10.88,72736.8,-3.97,-5.65,-5.39,0,*54
1508745650.63,34767,10.94,72734.0,-3.97,-5.55,-5.39,0,*56
1508745651.91,34768,10.88,72730.0,-3.97,-5.81,-5.65,0,*59
1508745653.15,34769,10.94,72730.8,-3.97,-5.55,-5.39,0,*58
1508745654.41,34770,10.94,72734.8,-3.97,-5.69,-5.51,0,*51
1508745655.67,34771,10.88,72736.3,-3.97,-5.69,-5.43,0,*53
1508745656.94,34772,10.88,72732.3,-3.97,-5.55,-5.31,0,*5A
1508745658.2,34773,10.88,72734.0,-3.97,-5.51,-5.15,0,*59
1508745659.43,34774,10.94,72740.5,-3.95,-5.47,-5.15,0,*5B
1508745660.65,34775,10.88,72738.3,-3.95,-5.61,-5.35,0,*5C
1508745661.91,34776,10.94,72742.0,-3.97,-5.69,-5.51,0,*57
1508745663.15,34777,10.88,72728.8,-3.97,-5.55,-5.39,0,*57
1508745664.35,34778,10.94,72728.5,-3.95,-5.51,-5.35,0,*52
1508745665.57,34779,10.88,72726.0,-3.95,-5.61,-5.35,0,*50
1508745666.8,34780,10.94,72738.0,-3.95,-5.65,-5.39,0,*5E
1508745668.02,34781,10.94,72734.5,-3.95,-5.61,-5.35,0,*57
1508745669.26,34782,10.94,72736.3,-3.95,-5.51,-5.23,0,*50
1508745670.51,34783,10.94,72738.0,-3.95,-5.61,-5.27,0,*56
1508745671.74,34784,10.94,72734.8,-3.95,-5.61,-5.35,0,*52
1508745672.97,34785,10.88,72728.3,-3.97,-5.55,-5.39,0,*5A
1508745674.17,34786,10.88,72724.0,-3.95,-5.51,-5.35,0,*53
1508745675.4,34787,10.94,72730.0,-3.95,-5.65,-5.47,0,*50
1508745676.63,34788,10.94,72732.8,-3.95,-5.61,-5.39,0,*52
1508745677.85,34789,10.94,72732.8,-3.95,-5.65,-5.47,0,*5E
1508745679.08,34790,10.88,72728.5,-3.95,-5.51,-5.27,0,*57
1508745680.32,34791,10.94,72728.8,-3.95,-5.51,-5.15,0,*57
1508745681.56,34792,10.88,72722.5,-3.93,-5.61,-5.39,0,*5F
1508745682.81,34793,10.88,72726.5,-3.93,-5.65,-5.47,0,*53
1508745684.06,34794,10.94,72728.0,-3.93,-5.61,-5.39,0,*59
1508745685.32,34795,10.94,72732.3,-3.93,-5.51,-5.27,0,*54
1508745686.55,34796,10.94,72728.0,-3.91,-5.55,-5.31,0,*56
1508745687.8,34797,10.88,72720.0,-3.93,-5.61,-5.35,0,*56
1508745689.03,34798,10.88,72728.3,-3.93,-5.51,-5.35,0,*5A
1508745690.26,34799,10.94,72732.3,-3.91,-5.55,-5.23,0,*5A
1508745691.54,34800,10.94,72724.8,-3.93,-5.61,-5.27,0,*54
1508745692.76,34801,10.88,72728.8,-3.91,-5.73,-5.43,0,*56
1508745694.01,34802,10.94,72732.8,-3.93,-5.69,-5.39,0,*51
1508745695.26,34803,10.94,72734.0,-3.93,-5.61,-5.47,0,*51
1508745696.52,34804,10.94,72730.5,-3.93,-5.51,-5.27,0,*53
1508745697.72,34805,10.88,72724.0,-3.91,-5.51,-5.35,0,*53
1508745698.97,34806,10.88,72732.5,-3.93,-5.69,-5.47,0,*5C
1508745700.22,34807,10.88,72732.5,-3.93,-5.77,-5.39,0,*5B
1508745701.44,34808,10.88,72736.8,-3.91,-5.69,-5.35,0,*55
1508745702.69,34809,10.94,72734.0,-3.91,-5.61,-5.31,0,*58
1508745703.94,34810,10.94,72732.5,-3.93,-5.65,-5.35,0,*52
1508745705.19,34811,10.94,72726.5,-3.93,-5.65,-5.47,0,*56
1508745706.44,34812,10.94,72738.5,-3.93,-5.81,-5.47,0,*5F
1508745707.69,34813,10.94,72734.8,-3.93,-5.69,-5.35,0,*5D
1508745708.94,34814,10.88,72728.0,-3.93,-5.77,-5.47,0,*50
1508745710.19,34815,10.94,72732.0,-3.93,-5.77,-5.39,0,*58
1508745711.45,34816,10.88,72730.3,-3.93,-5.81,-5.47,0,*5B
1508745712.7,34817,10.88,72734.5,-3.93,-5.69,-5.39,0,*55
1508745713.93,34818,10.88,72728.3,-3.91,-5.55,-5.23,0,*5C
1508745715.18,34819,10.88,72730.0,-3.93,-5.77,-5.47,0,*5D
1508745716.41,34820,10.94,72732.5,-3.91,-5.65,-5.35,0,*53
1508745717.66,34821,10.88,72734.5,-3.91,-5.61,-5.23,0,*51
1508745718.94,34822,10.94,72738.3,-3.93,-5.61,-5.23,0,*50
1508745720.18,34823,10.88,72734.0,-3.91,-5.55,-5.23,0,*54
1508745721.43,34824,10.88,72732.5,-3.93,-5.77,-5.47,0,*53
1508745722.65,34825,10.94,72742.0,-3.91,-5.85,-5.47,0,*5D
1508745723.89,34826,10.88,72740.3,-3.91,-5.47,-5.23,0,*52
1508745725.12,34827,10.94,72742.3,-3.91,-5.55,-5.19,0,*59
1508745726.4,34828,10.88,72748.5,-3.93,-5.61,-5.23,0,*5A
1508745727.63,34829,10.88,72744.5,-3.91,-5.55,-5.23,0,*5E
1508745728.87,34830,10.94,72738.0,-3.91,-5.55,-5.31,0,*55
1508745730.15,34831,10.94,72736.0,-3.93,-5.65,-5.27,0,*52
1508745731.37,34832,10.88,72734.3,-3.91,-5.65,-5.35,0,*50
1508745732.62,34833,10.88,72738.3,-3.93,-5.77,-5.47,0,*55
1508745733.86,34834,10.94,72750.0,-3.91,-5.47,-5.23,0,*51
1508745735.07,34835,10.88,72744.5,-3.91,-5.61,-5.43,0,*52
1508745736.32,34836,10.88,72740.3,-3.93,-5.65,-5.35,0,*56
1508745737.55,34837,10.88,72732.5,-3.91,-5.43,-5.07,0,*50
1508745738.77,34838,10.88,72736.0,-3.91,-5.65,-5.43,0,*5B
1508745740.06,34839,10.88,72734.8,-3.93,-5.65,-5.27,0,*5A
1508745741.28,34840,10.88,72730.3,-3.91,-5.47,-5.19,0,*5B
1508745742.52,34841,10.88,72730.0,-3.91,-5.55,-5.31,0,*53
1508745743.74,34842,10.94,72738.5,-3.91,-5.61,-5.35,0,*53
1508745744.96,34843,10.94,72736.8,-3.91,-5.73,-5.35,0,*51
1508745746.21,34844,10.94,72740.8,-3.93,-5.51,-5.23,0,*53
1508745747.45,34845,10.94,72738.8,-3.91,-5.47,-5.07,0,*51
1508745748.68,34846,10.88,72736.5,-3.91,-5.35,-5.07,0,*57
1508745749.9,34847,10.88,72738.8,-3.91,-5.43,-5.07,0,*57
1508745751.12,34848,10.94,72738.3,-3.91,-5.43,-5.11,0,*5F
1508745752.35,34849,10.88,72732.8,-3.87,-5.39,-5.07,0,*53
1508745753.58,34850,10.88,72738.5,-3.87,-5.39,-5.15,0,*58
1508745754.83,34851,10.88,72742.0,-3.89,-5.65,-5.35,0,*5C
1508745756.09,34852,10.88,72736.3,-3.89,-5.55,-5.11,0,*5A
1508745757.32,34853,10.88,72734.5,-3.87,-5.85,-5.51,0,*5C
1508745758.57,34854,10.94,72736.5,-3.89,-5.73,-5.35,0,*5E
1508745759.8,34855,10.94,72740.8,-3.87,-5.55,-5.19,0,*5B
1508745761.06,34856,10.88,72732.5,-3.89,-5.47,-5.23,0,*5C
1508745762.32,34857,10.88,72738.3,-3.89,-5.47,-5.07,0,*5B
1508745763.55,34858,10.94,72732.3,-3.87,-5.39,-5.15,0,*50
1508745764.81,34859,10.88,72726.5,-3.89,-5.55,-5.19,0,*59
1508745766.06,34860,10.94,72728.3,-3.89,-5.73,-5.43,0,*58
1508745767.34,34861,10.88,72734.8,-3.89,-5.61,-5.23,0,*5C
1508745768.57,34862,10.88,72742.0,-3.87,-5.51,-5.27,0,*56
1508745769.79,34863,10.94,72738.5,-3.87,-5.43,-5.19,0,*59
1508745771.05,34864,10.94,72734.8,-3.89,-5.65,-5.43,0,*5B
1508745772.3,34865,10.88,72732.5,-3.89,-6.01,-5.65,0,*5F
1508745773.52,34866,10.94,72732.3,-3.87,-5.77,-5.43,0,*54
1508745774.78,34867,10.88,72734.5,-3.89,-5.97,-5.61,0,*55
1508745776.03,34868,10.88,72732.5,-3.89,-5.73,-5.43,0,*50
1508745777.29,34869,10.94,72730.8,-3.89,-5.85,-5.47,0,*5C
1508745778.54,34870,10.94,72744.3,-3.89,-5.97,-5.65,0,*57
1508745779.79,34871,10.88,72740.8,-3.89,-5.65,-5.43,0,*5F
1508745781.01,34872,10.88,72736.0,-3.91,-5.73,-5.35,0,*53
1508745782.26,34873,10.88,72730.5,-3.91,-5.65,-5.31,0,*51
1508745783.48,34874,10.88,72732.8,-3.91,-5.61,-5.35,0,*56
1508745784.72,34875,10.88,72738.3,-3.91,-5.47,-5.23,0,*54
1508745785.94,34876,10.88,72726.8,-3.91,-5.47,-5.19,0,*5E
1508745787.18,34877,10.88,72724.3,-3.91,-5.55,-5.19,0,*5C
1508745788.41,34878,10.94,72732.3,-3.91,-5.55,-5.19,0,*53
1508745789.67,34879,10.88,72732.8,-3.89,-5.47,-5.23,0,*51
1508745790.92,34880,10.88,72726.5,-3.89,-5.77,-5.43,0,*52
1508745792.14,34881,10.94,72736.5,-3.91,-5.73,-5.35,0,*5F
1508745793.37,34882,10.94,72742.0,-3.91,-5.65,-5.35,0,*5B
1508745794.61,34883,10.88,72728.3,-3.89,-5.73,-5.43,0,*55
1508745795.87,34884,10.94,72736.0,-3.89,-5.47,-5.23,0,*53
1508745797.13,34885,10.94,72742.3,-3.89,-5.55,-5.19,0,*58
1508745798.39,34886,10.88,72740.0,-3.89,-5.47,-5.19,0,*58
1508745799.68,34887,10.88,72730.5,-3.89,-5.65,-5.23,0,*50
1508745800.96,34888,10.88,72738.0,-3.89,-5.61,-5.23,0,*5B
1508745802.19,34889,10.88,72732.0,-3.87,-5.81,-5.43,0,*5C
1508745803.44,34890,10.88,72738.3,-3.89,-5.89,-5.47,0,*56
1508745804.66,34891,10.88,72736.3,-3.91,-5.77,-5.35,0,*5A
1508745805.91,34892,10.88,72732.8,-3.91,-5.65,-5.31,0,*5E
1508745807.18,34893,10.94,72734.5,-3.89,-5.85,-5.55,0,*5A
1508745808.4,34894,10.88,72730.8,-3.91,-5.77,-5.43,0,*5E
1508745809.62,34895,10.94,72734.3,-3.91,-5.73,-5.43,0,*5B
1508745810.85,34896,10.88,72728.8,-3.91,-5.97,-5.61,0,*52
1508745812.1,34897,10.88,72728.0,-3.89,-5.73,-5.47,0,*54
1508745813.35,34898,10.94,72740.3,-3.89,-5.65,-5.35,0,*59
1508745814.6,34899,10.88,72740.8,-3.89,-5.65,-5.35,0,*58
1508745815.85,34900,10.88,72738.5,-3.89,-5.61,-5.35,0,*5D
1508745817.09,34901,10.94,72736.0,-3.91,-5.55,-5.19,0,*5C
1508745818.32,34902,10.88,72736.5,-3.91,-5.55,-5.31,0,*55
1508745819.58,34903,10.88,72738.8,-3.89,-5.55,-5.19,0,*57
1508745820.86,34904,10.88,72736.8,-3.89,-5.61,-5.31,0,*5D
1508745822.12,34905,10.88,72734.0,-3.89,-5.55,-5.31,0,*5B
1508745823.39,34906,10.88,72732.8,-3.89,-5.55,-5.23,0,*5B
1508745824.64,34907,10.88,72726.5,-3.89,-5.77,-5.47,0,*58
1508745825.87,34908,10.88,72730.8,-3.87,-5.81,-5.51,0,*57
1508745827.12,34909,10.88,72730.8,-3.89,-5.73,-5.47,0,*52
1508745828.4,34910,10.88,72732.0,-3.89,-5.77,-5.61,0,*5A
1508745829.63,34911,10.88,72738.5,-3.87,-5.93,-5.55,0,*58
1508745830.86,34912,10.94,72736.3,-3.91,-5.85,-5.47,0,*58
1508745832.11,34913,10.94,72732.8,-3.91,-5.61,-5.23,0,*51
1508745833.34,34914,10.88,72732.0,-3.91,-5.77,-5.47,0,*53
1508745834.55,34915,10.88,72740.0,-3.91,-5.73,-5.47,0,*56
1508745835.78,34916,10.88,72736.5,-3.91,-5.85,-5.47,0,*5C
1508745837.01,34917,10.94,72736.5,-3.91,-5.85,-5.47,0,*5D
1508745838.26,34918,10.88,72738.5,-3.93,-5.69,-5.47,0,*52
1508745839.52,34919,10.88,72734.3,-3.89,-5.47,-5.23,0,*56
1508745840.75,34920,10.88,72736.5,-3.91,-5.65,-5.35,0,*52
1508745841.97,34921,10.88,72740.3,-3.91,-5.65,-5.35,0,*53
1508745843.2,34922,10.94,72738.0,-3.91,-5.55,-5.31,0,*57
1508745844.43,34923,10.88,72734.0,-3.91,-5.65,-5.43,0,*50
1508745845.65,34924,10.88,72720.3,-3.91,-5.77,-5.43,0,*54
1508745846.88,34925,10.88,72734.0,-3.91,-5.85,-5.55,0,*5F
1508745848.13,34926,10.94,72726.3,-3.91,-5.89,-5.65,0,*53
1508745849.36,34927,10.88,72740.5,-3.91,-6.09,-5.73,0,*5E
1508745850.58,34928,10.94,72750.8,-3.91,-5.85,-5.47,0,*51
1508745851.81,34929,10.88,72738.0,-3.91,-5.65,-5.35,0,*5B
1508745853.06,34930,10.88,72734.5,-3.93,-5.65,-5.39,0,*5D
1508745854.28,34931,10.88,72726.5,-3.91,-5.65,-5.35,0,*52
1508745855.56,34932,10.94,72748.3,-3.93,-5.89,-5.61,0,*50
1508745856.78,34933,10.88,72738.5,-3.91,-5.61,-5.35,0,*54
1508745858.04,34934,10.94,72742.3,-3.91,-5.61,-5.23,0,*54
1508745859.26,34935,10.88,72740.0,-3.91,-5.61,-5.35,0,*52
1508745860.48,34936,10.94,72736.0,-3.91,-5.97,-5.77,0,*5E
1508745861.71,34937,10.88,72730.0,-3.91,-5.89,-5.55,0,*50
1508745862.97,34938,10.88,72728.5,-3.91,-5.89,-5.61,0,*58
1508745864.19,34939,10.88,72730.5,-3.91,-5.77,-5.47,0,*5C
1508745865.4,34940,10.88,72738.3,-3.91,-5.73,-5.43,0,*52
1508745866.64,34941,10.88,72728.8,-3.91,-5.55,-5.23,0,*51
1508745867.87,34942,10.88,72732.5,-3.91,-5.55,-5.31,0,*51
1508745869.13,34943,10.88,72738.8,-3.93,-5.81,-5.47,0,*5A
1508745870.33,34944,10.94,72730.8,-3.91,-5.55,-5.35,0,*53
1508745871.58,34945,10.88,72720.8,-3.91,-5.61,-5.31,0,*51
1508745872.8,34946,10.94,72736.8,-3.91,-5.61,-5.35,0,*56
1508745874.02,34947,10.88,72736.5,-3.91,-5.61,-5.35,0,*57
1508745875.27,34948,10.88,72734.5,-3.91,-5.65,-5.31,0,*58
1508745876.53,34949,10.88,72736.8,-3.89,-5.47,-5.19,0,*5A
1508745877.76,34950,10.94,72734.3,-3.91,-5.35,-5.11,0,*56
1508745878.98,34951,10.88,72732.5,-3.87,-5.39,-5.19,0,*54
1508745880.22,34952,10.88,72736.5,-3.89,-5.55,-5.35,0,*5D
1508745881.47,34953,10.88,72738.0,-3.89,-5.47,-5.31,0,*5B
1508745882.73,34954,10.94,72742.3,-3.89,-5.43,-5.11,0,*5A
1508745883.95,34955,10.88,72736.3,-3.91,-5.43,-5.19,0,*5A
1508745885.21,34956,10.88,72736.5,-3.89,-5.47,-5.23,0,*5D
1508745886.47,34957,10.88,72736.0,-3.89,-5.47,-5.23,0,*5C
1508745887.73,34958,10.94,72742.0,-3.89,-5.47,-5.23,0,*53
1508745888.96,34959,10.88,72742.3,-3.89,-5.35,-4.99,0,*57
1508745890.18,34960,10.94,72746.8,-3.87,-5.39,-5.19,0,*56
1508745891.47,34961,10.88,72738.5,-3.89,-5.61,-5.23,0,*5D
1508745892.69,34962,10.88,72740.8,-3.87,-5.43,-5.19,0,*59
1508745893.94,34963,10.88,72740.8,-3.89,-5.43,-5.07,0,*59
1508745895.18,34964,10.88,72730.3,-3.83,-5.51,-5.27,0,*55
1508745896.42,34965,10.88,72734.8,-3.89,-5.73,-5.43,0,*5C
1508745897.67,34966,10.88,72746.8,-3.89,-5.73,-5.47,0,*5B
1508745898.92,34967,10.88,72738.5,-3.89,-5.65,-5.35,0,*58
1508745900.17,34968,10.88,72740.0,-3.89,-5.73,-5.43,0,*51
1508745901.39,34969,10.88,72738.8,-3.87,-5.61,-5.39,0,*50
1508745902.65,34970,10.88,72738.3,-3.89,-5.77,-5.55,0,*5B
1508745903.9,34971,10.94,72748.3,-3.89,-5.77,-5.47,0,*59
1508745905.12,34972,10.88,72742.3,-3.87,-5.73,-5.43,0,*54
1508745906.37,34973,10.88,72742.0,-3.89,-5.61,-5.35,0,*59
1508745907.57,34974,10.88,72740.3,-3.87,-5.51,-5.35,0,*53
1508745908.82,34975,10.94,72766.0,-3.89,-5.65,-5.35,0,*5B
1508745910.09,34976,10.88,72750.8,-3.89,-5.55,-5.23,0,*5C
1508745911.32,34977,10.88,72738.0,-3.87,-5.51,-5.27,0,*53
1508745912.55,34978,10.94,72732.5,-3.87,-5.51,-5.27,0,*5C
1508745913.81,34979,10.88,72718.0,-3.89,-5.47,-5.31,0,*53
1508745915.06,34980,10.88,72702.0,-3.89,-5.61,-5.43,0,*54
1508745916.34,34981,10.88,72724.0,-3.89,-5.89,-5.65,0,*57
1508745917.56,34982,10.94,72740.5,-3.87,-6.09,-5.69,0,*5D
1508745918.81,34983,10.88,72728.3,-3.89,-6.01,-5.77,0,*55
1508745920.06,34984,10.88,72724.3,-3.89,-6.23,-6.01,0,*50
1508745921.34,34985,10.94,72718.5,-3.89,-5.89,-5.65,0,*53
1508745922.57,34986,10.88,72730.0,-3.91,-5.97,-5.65,0,*56
1508745923.8,34987,10.88,72720.5,-3.91,-6.13,-5.85,0,*56
1508745925.05,34988,10.88,72742.0,-3.89,-6.09,-5.73,0,*52
1508745926.3,34989,10.88,72748.3,-3.91,-5.89,-5.61,0,*52
1508745927.54,34990,10.88,72752.0,-3.91,-5.55,-5.31,0,*5E
1508745928.76,34991,10.88,72748.3,-3.91,-5.47,-5.31,0,*5C
1508745930.0,34992,10.88,72750.0,-3.91,-5.55,-5.31,0,*5C
1508745931.21,34993,10.88,72720.5,-3.91,-5.73,-5.35,0,*5D
1508745932.47,34994,10.88,72738.5,-3.91,-6.23,-5.85,0,*57
1508745933.74,34995,10.88,72754.5,-3.93,-6.27,-5.89,0,*5C
1508745934.95,34996,10.88,72736.3,-3.91,-5.97,-5.55,0,*54
1508745936.17,34997,10.88,72738.3,-3.91,-5.97,-5.61,0,*52
1508745937.4,34998,10.88,72742.5,-3.91,-5.77,-5.47,0,*57
1508745938.63,34999,10.94,72746.8,-3.91,-5.55,-5.31,0,*57
1508745939.89,35000,10.94,72744.3,-3.93,-5.51,-5.23,0,*5A
1508745941.12,35001,10.94,72746.3,-3.91,-5.55,-5.19,0,*54
1508745942.35,35002,10.88,72736.3,-3.91,-5.65,-5.35,0,*5A
1508745943.58,35003,10.88,72738.8,-3.91,-5.89,-5.55,0,*5F
1508745944.79,35004,10.88,72746.3,-3.91,-5.73,-5.43,0,*5A
1508745946.02,35005,10.88,72748.0,-3.91,-5.85,-5.43,0,*52
1508745947.25,35006,10.94,72742.5,-3.93,-5.47,-5.35,0,*5C
1508745948.48,35007,10.94,72744.0,-3.91,-5.55,-5.31,0,*58
1508745949.74,35008,10.94,72746.8,-3.93,-5.51,-5.27,0,*56
1508745951.0,35009,10.88,72744.5,-3.89,-5.47,-5.23,0,*5F
1508745952.25,35010,10.88,72740.5,-3.89,-5.43,-5.11,0,*52
1508745953.47,35011,10.88,72748.8,-3.91,-5.43,-5.11,0,*5A
1508745954.69,35012,10.88,72750.5,-3.91,-5.61,-5.35,0,*5F
1508745955.94,35013,10.88,72742.5,-3.89,-5.61,-5.35,0,*57
1508745957.17,35014,10.88,72732.8,-3.87,-5.69,-5.39,0,*5A
1508745958.42,35015,10.88,72736.5,-3.89,-6.09,-5.73,0,*5E
1508745959.64,35016,10.88,72740.8,-3.87,-5.69,-5.43,0,*55
1508745960.9,35017,10.88,72738.5,-3.89,-5.97,-5.61,0,*5B
1508745962.16,35018,10.88,72756.3,-3.89,-5.77,-5.47,0,*5E
1508745963.38,35019,10.88,72750.8,-3.91,-5.77,-5.43,0,*52
1508745964.6,35020,10.88,72742.3,-3.91,-6.09,-5.77,0,*55
1508745965.86,35021,10.88,72742.5,-3.89,-6.01,-5.65,0,*56
1508745967.07,35022,10.88,72734.8,-3.87,-6.05,-5.73,0,*58
1508745968.3,35023,10.94,72746.8,-3.91,-5.89,-5.47,0,*5E
1508745969.51,35024,10.88,72738.8,-3.91,-5.73,-5.35,0,*59
1508745970.73,35025,10.88,72728.0,-3.91,-5.73,-5.43,0,*59
1508745972.01,35026,10.94,72730.8,-3.89,-5.77,-5.61,0,*57
1508745973.27,35027,10.88,72724.8,-3.89,-6.01,-5.73,0,*57
1508745974.52,35028,10.88,72734.8,-3.89,-5.97,-5.61,0,*57
1508745975.78,35029,10.88,72738.3,-3.91,-5.89,-5.61,0,*50
1508745977.03,35030,10.88,72730.8,-3.93,-6.31,-5.89,0,*5C
1508745978.31,35031,10.88,72730.3,-3.89,-6.23,-5.85,0,*59
1508745979.56,35032,10.88,72718.5,-3.93,-6.05,-5.77,0,*58
1508745980.8,35033,10.88,72708.5,-3.93,-6.05,-5.77,0,*59
1508745982.0,35034,10.88,72710.5,-3.91,-6.43,-6.09,0,*54
1508745983.22,35035,10.94,72724.0,-3.93,-6.39,-6.01,0,*52
1508745984.47,35036,10.94,72734.3,-3.93,-6.13,-5.77,0,*5B
1508745985.7,35037,10.88,72718.8,-3.95,-6.01,-5.61,0,*58
1508745986.93,35038,10.88,72716.0,-3.95,-5.89,-5.51,0,*57
1508745988.15,35039,10.88,72720.5,-3.93,-6.39,-6.05,0,*5A
1508745989.4,35040,10.88,72746.5,-3.93,-6.13,-5.69,0,*55
1508745990.62,35041,10.88,72736.8,-3.91,-5.77,-5.47,0,*5B
1508745991.87,35042,10.88,72718.5,-3.93,-5.65,-5.39,0,*50
1508745993.13,35043,10.88,72722.0,-3.93,-5.51,-5.27,0,*59
1508745994.38,35044,10.88,72720.5,-3.93,-5.61,-5.39,0,*52
1508745995.63,35045,10.88,72732.3,-3.93,-5.89,-5.51,0,*5B
1508745996.91,35046,10.94,72742.0,-3.93,-5.89,-5.61,0,*5B
1508745998.16,35047,10.94,72740.3,-3.93,-5.65,-5.35,0,*59
1508745999.39,35048,10.88,72734.3,-3.95,-5.69,-5.47,0,*59
1508746000.65,35049,10.88,72730.8,-3.93,-5.47,-5.23,0,*50
1508746001.9,35050,10.88,72726.8,-3.93,-5.81,-5.51,0,*57
1508746003.16,35051,10.88,72720.5,-3.93,-5.81,-5.51,0,*56
1508746004.4,35052,10.88,72732.5,-3.93,-5.61,-5.39,0,*55
1508746005.66,35053,10.88,72730.8,-3.95,-5.61,-5.27,0,*5D
1508746006.91,35054,10.88,72724.0,-3.93,-5.69,-5.39,0,*5B
1508746008.16,35055,10.88,72732.3,-3.93,-5.65,-5.35,0,*5A
1508746009.44,35056,10.88,72736.0,-3.93,-5.61,-5.27,0,*5E
1508746010.69,35057,10.88,72728.5,-3.93,-5.51,-5.15,0,*5D
1508746011.93,35058,10.94,72730.5,-3.91,-5.47,-5.23,0,*52
1508746013.18,35059,10.94,72724.3,-3.93,-5.77,-5.47,0,*50
1508746014.42,35060,10.88,72728.0,-3.93,-6.13,-5.77,0,*58
1508746015.68,35061,10.94,72728.0,-3.93,-5.89,-5.51,0,*5D
1508746016.93,35062,10.88,72728.5,-3.93,-5.69,-5.39,0,*5E
1508746018.18,35063,10.94,72750.8,-3.93,-5.61,-5.35,0,*5B
1508746019.41,35064,10.88,72728.5,-3.91,-5.47,-5.23,0,*5D
1508746020.66,35065,10.88,72718.5,-3.93,-5.65,-5.39,0,*55
1508746021.88,35066,10.88,72716.0,-3.91,-5.73,-5.43,0,*5E
1508746023.13,35067,10.88,72714.8,-3.93,-5.69,-5.47,0,*52
1508746024.37,35068,10.94,72710.8,-3.93,-6.05,-5.77,0,*57
1508746025.65,35069,10.88,72706.0,-3.93,-6.19,-5.89,0,*5A
1508746026.9,35070,10.88,72734.8,-3.93,-6.27,-6.01,0,*5C
1508746028.12,35071,10.88,72750.0,-3.95,-6.01,-5.65,0,*5E
1508746029.35,35072,10.88,72748.8,-3.95,-6.13,-5.89,0,*5C
1508746030.6,35073,10.88,72738.3,-3.95,-6.27,-5.93,0,*51
1508746031.89,35074,10.88,72722.8,-3.97,-6.19,-5.85,0,*5E
1508746033.14,35075,10.88,72724.0,-3.95,-6.27,-5.93,0,*57
1508746034.42,35076,10.88,72726.5,-3.97,-6.23,-5.93,0,*52
1508746035.65,35077,10.94,72722.0,-3.95,-5.81,-5.51,0,*54
1508746036.9,35078,10.88,72718.5,-3.95,-5.81,-5.65,0,*5C
1508746038.13,35079,10.88,72716.3,-3.95,-6.01,-5.81,0,*5C
1508746039.39,35080,10.88,72714.0,-3.97,-5.81,-5.55,0,*5A
1508746040.62,35081,10.88,72716.8,-3.95,-5.69,-5.47,0,*5C
1508746041.88,35082,10.94,72714.8,-3.97,-5.81,-5.51,0,*5C
1508746043.15,35083,10.88,72730.8,-3.97,-5.85,-5.55,0,*5D
1508746044.37,35084,10.88,72738.3,-3.95,-5.65,-5.47,0,*55
1508746045.6,35085,10.88,72732.8,-3.95,-5.69,-5.47,0,*58
1508746046.81,35086,10.88,72738.3,-3.95,-5.97,-5.55,0,*59
1508746048.06,35087,10.88,72732.3,-3.95,-5.93,-5.69,0,*53
1508746049.29,35088,10.88,72738.5,-3.95,-6.01,-5.61,0,*5C
1508746050.52,35089,10.88,72746.8,-3.95,-5.69,-5.35,0,*51
1508746051.72,35090,10.88,72736.3,-3.95,-6.31,-6.09,0,*5B
1508746052.92,35091,10.88,72730.3,-3.95,-6.47,-6.35,0,*54
1508746054.15,35092,10.88,72722.8,-3.97,-6.73,-6.51,0,*50
1508746055.41,35093,10.88,72690.8,-3.97,-7.01,-6.77,0,*51
1508746056.64,35094,10.88,72678.0,-3.97,-6.35,-5.97,0,*5D
1508746057.89,35095,10.88,72704.3,-3.97,-6.23,-5.97,0,*5B
1508746059.12,35096,10.88,72708.3,-3.97,-6.35,-5.97,0,*5F
1508746060.35,35097,10.88,72690.3,-4.01,-6.47,-6.35,0,*58
1508746061.58,35098,10.88,72676.8,-3.99,-6.23,-5.97,0,*58
1508746062.8,35099,10.88,72700.0,-3.99,-6.05,-5.69,0,*5C
1508746064.03,35100,10.88,72696.5,-3.99,-6.05,-5.73,0,*56
1508746065.29,35101,10.88,72690.0,-3.99,-5.93,-5.69,0,*50
1508746066.54,35102,10.88,72700.3,-4.01,-5.97,-5.69,0,*51
1508746067.78,35103,10.88,72712.3,-3.99,-5.81,-5.55,0,*5E
1508746069.02,35104,10.88,72712.0,-3.99,-6.09,-5.85,0,*57
1508746070.27,35105,10.88,72698.0,-4.01,-6.51,-6.27,0,*56
1508746071.53,35106,10.88,72710.3,-3.99,-6.19,-5.93,0,*53
1508746072.76,35107,10.88,72708.5,-3.99,-6.23,-6.05,0,*57
1508746073.99,35108,10.88,72698.5,-3.99,-5.97,-5.81,0,*5B
1508746075.22,35109,10.94,72688.5,-4.01,-6.35,-6.09,0,*54
1508746076.46,35110,10.88,72694.3,-4.01,-6.23,-5.97,0,*5F
1508746077.74,35111,10.94,72690.8,-4.01,-6.27,-5.89,0,*55
1508746079.0,35112,10.88,72716.5,-4.01,-6.09,-5.77,0,*5B
1508746080.22,35113,10.88,72700.8,-4.01,-6.39,-5.97,0,*57
1508746081.5,35114,10.88,72700.0,-4.01,-6.27,-5.89,0,*50
1508746082.73,35115,10.88,72722.0,-4.01,-6.35,-6.01,0,*51
1508746083.95,35116,10.88,72710.0,-4.03,-6.47,-6.27,0,*51
1508746085.2,35117,10.88,72716.8,-4.05,-6.27,-5.93,0,*5C
1508746086.45,35118,10.88,72714.5,-4.01,-5.97,-5.77,0,*55
1508746087.68,35119,10.88,72712.8,-4.03,-5.97,-5.77,0,*56
1508746088.9,35120,10.94,72726.8,-4.03,-6.01,-5.77,0,*50
1508746090.16,35121,10.88,72696.3,-4.03,-5.85,-5.69,0,*51
1508746091.39,35122,10.88,72702.5,-4.03,-6.13,-5.89,0,*50
1508746092.61,35123,10.88,72702.5,-4.01,-6.39,-6.13,0,*5B
1508746093.85,35124,10.88,72698.5,-4.03,-6.09,-5.85,0,*51
1508746095.05,35125,10.88,72694.3,-4.03,-6.51,-6.39,0,*59
1508746096.28,35126,10.88,72700.0,-4.03,-6.13,-5.89,0,*54
1508746097.51,35127,10.88,72696.0,-4.03,-5.97,-5.69,0,*54
1508746098.77,35128,10.94,72708.3,-4.03,-5.89,-5.61,0,*5C
1508746100.02,35129,10.88,72710.3,-4.03,-5.89,-5.69,0,*55
1508746101.24,35130,10.88,72698.5,-4.03,-6.01,-5.77,0,*51
1508746102.5,35131,10.88,72706.8,-4.01,-5.97,-5.77,0,*5E
1508746103.71,35132,10.88,72696.5,-4.03,-6.27,-6.09,0,*5D
1508746104.91,35133,10.88,72708.5,-4.03,-6.13,-5.97,0,*5F
1508746106.16,35134,10.88,72712.0,-4.03,-5.89,-5.73,0,*52
1508746107.39,35135,10.88,72714.0,-4.05,-6.01,-5.65,0,*51
1508746108.65,35136,10.88,72722.5,-4.03,-5.77,-5.61,0,*52
1508746109.91,35137,10.88,72712.8,-4.03,-5.89,-5.61,0,*52
1508746111.16,35138,10.88,72700.8,-4.03,-5.77,-5.61,0,*5C
1508746112.4,35139,10.88,72712.3,-4.03,-5.85,-5.55,0,*57
1508746113.66,35140,10.88,72710.5,-4.01,-5.97,-5.69,0,*57